Вернуться в каталог

QIANFAN-182

АктивенСвязьPO
NORAD 69399·PAYLOAD·🇨🇳 China

Запущен Jun 4, 2026 с Taiyuan Satellite Launch Center

Loading…

Ближайшие Пролёты (ближайшие 24 часа)

TLE

СвежийSource: Space-Track

Эпоха: Sep 14, 2026, 13:39 UTC

1 69399U 26124T   26257.56935734  .00000128  00000-0  17931-3 0  9990
2 69399  89.0049 352.6165 0001835 102.6950 257.4406 13.51027454 14090

Отслеживайте QIANFAN-182 в реальном времени с AllMySat

Download on the App Store